• Em Portugal
  • Lista de países
  • Para 7 dias
  • Temperatura da água
  • Mapas de satélite
  • Mapa do tempo
  • Widgets de tempo
  • user-avatar
    Iniciar Sessão

    Previsão horária em Speshnevo

    Hoje, 25 Maio, Sexta-feira

    Tempo Temperatura Precipitação Vento Pressão Humidade
    00:00 +13°C° 0 mm 4 m/s 740 mmHg 89%
    01:00 +13°C° 0 mm 4 m/s 740 mmHg 89%
    02:00 +12°C° 0 mm 3 m/s 740 mmHg 92%
    03:00 +12°C° 0 mm 4 m/s 740 mmHg 91%
    04:00 +12°C° 0 mm 5 m/s 740 mmHg 91%
    05:00 +13°C° 0 mm 5 m/s 741 mmHg 90%
    06:00 +14°C° 0 mm 6 m/s 741 mmHg 86%
    07:00 +16°C° 0 mm 6 m/s 741 mmHg 81%
    08:00 +17°C° 0 mm 7 m/s 741 mmHg 76%
    09:00 +18°C° 0 mm 7 m/s 742 mmHg 73%
    10:00 +18°C° 0 mm 7 m/s 742 mmHg 69%
    11:00 +20°C° 0 mm 7 m/s 742 mmHg 66%
    12:00 +20°C° 0 mm 7 m/s 742 mmHg 64%
    13:00 +20°C° 0 mm 7 m/s 743 mmHg 63%
    14:00 +20°C° 0 mm 7 m/s 743 mmHg 61%
    15:00 +18°C° 0 mm 7 m/s 743 mmHg 62%
    16:00 +17°C° 0 mm 6 m/s 743 mmHg 63%
    17:00 +17°C° 0 mm 6 m/s 743 mmHg 63%
    18:00 +15°C° 0 mm 5 m/s 744 mmHg 65%
    19:00 +14°C° 0 mm 5 m/s 744 mmHg 68%
    20:00 +12°C° 0 mm 5 m/s 745 mmHg 70%
    21:00 +12°C° 0 mm 5 m/s 745 mmHg 70%
    22:00 +11°C° 0 mm 4 m/s 746 mmHg 69%
    23:00 +10°C° 0 mm 4 m/s 746 mmHg 69%

    Amanhã, 26 Maio, Sábado

    Tempo Temperatura Precipitação Vento Pressão Humidade
    00:00 +10°C° 0 mm 4 m/s 747 mmHg 69%
    01:00 +8°C° 0 mm 4 m/s 747 mmHg 69%
    02:00 +8°C° 0 mm 4 m/s 748 mmHg 69%
    03:00 +8°C° 0 mm 4 m/s 748 mmHg 71%
    04:00 +7°C° 0 mm 4 m/s 749 mmHg 73%
    05:00 +7°C° 0 mm 4 m/s 749 mmHg 75%
    06:00 +10°C° 0 mm 4 m/s 749 mmHg 69%
    07:00 +10°C° 0 mm 5 m/s 750 mmHg 63%
    08:00 +12°C° 0 mm 5 m/s 750 mmHg 57%
    09:00 +13°C° 0 mm 6 m/s 750 mmHg 55%
    10:00 +14°C° 0 mm 6 m/s 751 mmHg 53%
    11:00 +15°C° 0 mm 6 m/s 751 mmHg 51%
    12:00 +15°C° 0 mm 6 m/s 751 mmHg 51%
    13:00 +16°C° 0 mm 5 m/s 751 mmHg 52%
    14:00 +16°C° 0 mm 5 m/s 751 mmHg 52%
    15:00 +16°C° 0 mm 5 m/s 750 mmHg 55%
    16:00 +15°C° 0 mm 4 m/s 750 mmHg 57%
    17:00 +15°C° 0 mm 4 m/s 750 mmHg 59%
    18:00 +13°C° 0 mm 3 m/s 750 mmHg 64%
    19:00 +12°C° 0 mm 3 m/s 750 mmHg 68%
    20:00 +10°C° 0 mm 2 m/s 750 mmHg 73%
    21:00 +10°C° 0 mm 2 m/s 750 mmHg 73%
    22:00 +9°C° 0 mm 2 m/s 751 mmHg 74%
    23:00 +8°C° 0 mm 2 m/s 751 mmHg 75%

    Depois de amanhã, 27 Maio, Domingo

    Tempo Temperatura Precipitação Vento Pressão Humidade
    00:00 +8°C° 0 mm 2 m/s 751 mmHg 76%
    01:00 +7°C° 0 mm 2 m/s 751 mmHg 77%
    02:00 +8°C° 0 mm 1 m/s 751 mmHg 78%
    03:00 +8°C° 0 mm 1 m/s 751 mmHg 79%
    04:00 +9°C° 0 mm 1 m/s 751 mmHg 79%
    05:00 +10°C° 0 mm 1 m/s 751 mmHg 79%
    06:00 +11°C° 0 mm 1 m/s 751 mmHg 72%
    07:00 +13°C° 0 mm 1 m/s 751 mmHg 66%
    08:00 +14°C° 0 mm 1 m/s 751 mmHg 59%
    09:00 +15°C° 0 mm 1 m/s 750 mmHg 56%
    10:00 +16°C° 0 mm 1 m/s 750 mmHg 52%
    11:00 +18°C° 0 mm 1 m/s 750 mmHg 49%
    12:00 +18°C° 0 mm 2 m/s 749 mmHg 48%
    13:00 +18°C° 0 mm 2 m/s 749 mmHg 48%
    14:00 +19°C° 0 mm 2 m/s 748 mmHg 47%
    15:00 +19°C° 0 mm 2 m/s 748 mmHg 50%
    16:00 +19°C° 0 mm 2 m/s 747 mmHg 53%
    17:00 +19°C° 0 mm 2 m/s 747 mmHg 56%
    18:00 +17°C° 0 mm 2 m/s 747 mmHg 62%
    19:00 +15°C° 0 mm 2 m/s 746 mmHg 67%
    20:00 +13°C° 0 mm 2 m/s 746 mmHg 72%
    21:00 +13°C° 0 mm 2 m/s 746 mmHg 74%
    22:00 +12°C° 0 mm 2 m/s 746 mmHg 75%
    23:00 +10°C° 0 mm 2 m/s 746 mmHg 76%

    28 Maio, Segunda-feira

    Tempo Temperatura Precipitação Vento Pressão Humidade
    00:00 +10°C° 0 mm 2 m/s 746 mmHg 78%
    01:00 +10°C° 0 mm 2 m/s 746 mmHg 79%
    02:00 +10°C° 0 mm 3 m/s 746 mmHg 81%
    03:00 +10°C° 0 mm 2 m/s 746 mmHg 82%
    04:00 +10°C° 0 mm 2 m/s 746 mmHg 83%
    05:00 +12°C° 0 mm 2 m/s 746 mmHg 84%
    06:00 +14°C° 0 mm 2 m/s 746 mmHg 80%
    07:00 +14°C° 0 mm 3 m/s 747 mmHg 77%
    08:00 +17°C° 0 mm 3 m/s 747 mmHg 73%
    09:00 +18°C° 0 mm 3 m/s 747 mmHg 69%
    10:00 +19°C° 0 mm 4 m/s 747 mmHg 64%
    11:00 +20°C° 0 mm 4 m/s 747 mmHg 60%
    12:00 +20°C° 0 mm 4 m/s 747 mmHg 58%
    13:00 +20°C° 0 mm 4 m/s 747 mmHg 55%
    14:00 +21°C° 0 mm 4 m/s 747 mmHg 53%
    15:00 +20°C° 0 mm 4 m/s 747 mmHg 56%
    16:00 +20°C° 0 mm 4 m/s 747 mmHg 59%
    17:00 +19°C° 0 mm 3 m/s 747 mmHg 62%
    18:00 +17°C° 0 mm 3 m/s 747 mmHg 66%
    19:00 +16°C° 0 mm 3 m/s 748 mmHg 71%
    20:00 +13°C° 0 mm 3 m/s 748 mmHg 75%
    21:00 +12°C° 0 mm 3 m/s 748 mmHg 74%
    22:00 +11°C° 0 mm 3 m/s 748 mmHg 73%
    23:00 +10°C° 0 mm 2 m/s 749 mmHg 72%

    29 Maio, Terça-feira

    Tempo Temperatura Precipitação Vento Pressão Humidade
    00:00 +9°C° 0 mm 2 m/s 749 mmHg 72%
    01:00 +9°C° 0 mm 2 m/s 749 mmHg 72%
    02:00 +8°C° 0 mm 2 m/s 750 mmHg 72%
    03:00 +8°C° 0 mm 2 m/s 750 mmHg 72%
    04:00 +9°C° 0 mm 2 m/s 750 mmHg 73%
    05:00 +10°C° 0 mm 1 m/s 750 mmHg 73%
    06:00 +12°C° 0 mm 1 m/s 750 mmHg 67%
    07:00 +14°C° 0 mm 2 m/s 750 mmHg 61%
    08:00 +15°C° 0 mm 2 m/s 750 mmHg 55%
    09:00 +17°C° 0 mm 2 m/s 750 mmHg 52%
    10:00 +18°C° 0 mm 2 m/s 750 mmHg 50%
    11:00 +19°C° 0 mm 2 m/s 750 mmHg 48%
    12:00 +20°C° 0 mm 2 m/s 749 mmHg 48%
    13:00 +20°C° 0 mm 2 m/s 749 mmHg 49%
    14:00 +21°C° 0 mm 2 m/s 748 mmHg 49%
    15:00 +21°C° 0 mm 2 m/s 748 mmHg 52%
    16:00 +21°C° 0 mm 2 m/s 748 mmHg 56%
    17:00 +21°C° 0 mm 2 m/s 747 mmHg 59%
    18:00 +19°C° 0 mm 2 m/s 747 mmHg 63%
    19:00 +17°C° 0 mm 2 m/s 747 mmHg 68%
    20:00 +15°C° 0 mm 1 m/s 747 mmHg 72%
    21:00 +15°C° 0 mm 2 m/s 747 mmHg 73%
    22:00 +14°C° 0 mm 2 m/s 747 mmHg 73%
    23:00 +14°C° 0 mm 2 m/s 746 mmHg 74%

    30 Maio, Quarta-feira

    Tempo Temperatura Precipitação Vento Pressão Humidade
    00:00 +13°C° 0 mm 2 m/s 746 mmHg 76%
    01:00 +13°C° 0 mm 2 m/s 746 mmHg 78%
    02:00 +11°C° 0 mm 3 m/s 746 mmHg 79%
    03:00 +12°C° 0 mm 3 m/s 746 mmHg 80%
    04:00 +12°C° 0 mm 3 m/s 746 mmHg 82%
    05:00 +12°C° 0 mm 3 m/s 745 mmHg 83%
    06:00 +14°C° 0 mm 3 m/s 745 mmHg 78%
    07:00 +17°C° 0 mm 4 m/s 745 mmHg 73%
    08:00 +19°C° 0 mm 4 m/s 745 mmHg 68%
    09:00 +20°C° 0 mm 5 m/s 744 mmHg 65%
    10:00 +21°C° 0 mm 5 m/s 744 mmHg 61%
    11:00 +22°C° 0 mm 6 m/s 743 mmHg 58%
    12:00 +23°C° 0 mm 6 m/s 743 mmHg 57%
    13:00 +23°C° 0 mm 6 m/s 742 mmHg 57%
    14:00 +23°C° 0 mm 6 m/s 742 mmHg 56%
    15:00 +23°C° 0 mm 6 m/s 741 mmHg 60%
    16:00 +23°C° 0 mm 5 m/s 741 mmHg 64%
    17:00 +23°C° 0 mm 4 m/s 740 mmHg 68%
    18:00 +21°C° 0 mm 4 m/s 740 mmHg 72%
    19:00 +20°C° 0 mm 4 m/s 740 mmHg 77%
    20:00 +18°C° 0 mm 4 m/s 739 mmHg 81%
    21:00 +17°C° 0 mm 4 m/s 739 mmHg 83%
    22:00 +17°C° 0 mm 4 m/s 739 mmHg 84%
    23:00 +16°C° 0 mm 5 m/s 739 mmHg 86%
    Mostrar mais